TimeCDT,TemperatureF,Dew PointF,Humidity,Sea Level PressureIn,VisibilityMPH,Wind Direction,Wind SpeedMPH,Gust SpeedMPH,PrecipitationIn,Events,Conditions,WindDirDegrees,DateUTC
12:53 AM,57.9,55.0,90,30.08,10.0,ESE,8.1,-,N/A,,Clear,110,2013-05-24 05:53:00
1:53 AM,57.9,54.0,87,30.09,10.0,ESE,9.2,-,N/A,,Clear,110,2013-05-24 06:53:00
2:53 AM,59.0,54.0,83,30.08,10.0,East,3.5,-,N/A,,Clear,80,2013-05-24 07:53:00
3:53 AM,57.9,54.0,87,30.09,10.0,East,6.9,-,N/A,,Clear,90,2013-05-24 08:53:00
4:53 AM,57.0,55.0,93,30.08,10.0,East,4.6,-,N/A,,Clear,80,2013-05-24 09:53:00
5:27 AM,57.2,55.4,94,30.13,10.0,ESE,5.8,-,N/A,,Mostly Cloudy,120,2013-05-24 10:27:00
5:53 AM,59.0,55.9,90,30.10,10.0,ESE,4.6,-,N/A,,Overcast,120,2013-05-24 10:53:00
6:53 AM,59.0,55.9,90,30.10,10.0,ESE,10.4,-,N/A,,Overcast,110,2013-05-24 11:53:00
7:53 AM,62.1,57.0,84,30.11,10.0,ESE,9.2,-,N/A,,Overcast,120,2013-05-24 12:53:00
8:53 AM,64.0,57.9,80,30.13,10.0,ESE,9.2,-,N/A,,Overcast,120,2013-05-24 13:53:00
9:17 AM,64.4,57.2,77,30.17,10.0,SE,9.2,-,N/A,,Overcast,140,2013-05-24 14:17:00
9:53 AM,66.0,59.0,78,30.12,10.0,SSE,15.0,-,N/A,,Overcast,150,2013-05-24 14:53:00
10:34 AM,69.8,60.8,73,30.16,10.0,South,15.0,20.7,N/A,,Overcast,170,2013-05-24 15:34:00
10:53 AM,71.1,61.0,70,30.11,10.0,SSE,16.1,23.0,N/A,,Overcast,160,2013-05-24 15:53:00
11:28 AM,75.2,62.6,65,30.14,10.0,SSE,15.0,-,N/A,,Scattered Clouds,160,2013-05-24 16:28:00
11:53 AM,77.0,63.0,62,30.08,10.0,South,17.3,23.0,N/A,,Clear,170,2013-05-24 16:53:00
12:53 PM,78.1,64.0,62,30.08,10.0,South,19.6,-,N/A,,Mostly Cloudy,180,2013-05-24 17:53:00
1:15 PM,80.6,64.4,58,30.13,10.0,SSE,17.3,25.3,N/A,,Mostly Cloudy,160,2013-05-24 18:15:00
1:53 PM,82.9,64.0,53,30.05,10.0,SE,17.3,24.2,N/A,,Partly Cloudy,140,2013-05-24 18:53:00
2:53 PM,82.9,63.0,51,30.04,10.0,SSE,23.0,29.9,N/A,,Scattered Clouds,160,2013-05-24 19:53:00
3:53 PM,84.9,62.1,46,30.01,10.0,SSE,17.3,29.9,N/A,,Scattered Clouds,160,2013-05-24 20:53:00
4:53 PM,84.9,63.0,48,29.98,10.0,South,20.7,28.8,N/A,,Scattered Clouds,170,2013-05-24 21:53:00
5:53 PM,88.0,59.0,37,29.94,10.0,South,21.9,28.8,N/A,,Partly Cloudy,170,2013-05-24 22:53:00
6:53 PM,84.0,64.0,51,29.94,10.0,SSE,20.7,33.4,N/A,,Clear,150,2013-05-24 23:53:00
7:53 PM,78.1,63.0,60,29.95,10.0,SSE,26.5,34.5,N/A,,Clear,150,2013-05-25 00:53:00
8:53 PM,71.1,63.0,75,29.97,10.0,SSE,26.5,36.8,N/A,,Clear,160,2013-05-25 01:53:00
9:53 PM,72.0,66.9,84,29.99,10.0,SSE,18.4,26.5,N/A,,Clear,160,2013-05-25 02:53:00
10:53 PM,72.0,66.0,81,30.00,10.0,South,18.4,-,N/A,,Clear,170,2013-05-25 03:53:00
11:53 PM,70.0,61.0,73,30.01,10.0,South,18.4,27.6,N/A,,Clear,180,2013-05-25 04:53:00